COSMOS 1748

Satellite information

Favourite Embed

Satellite Type and Status

PAYLOADIN ORBIT

Key statistics

Satellite COSMOS 1748 at a glance.

Uptime

14221

Days in orbit

Revolutions

≈ 12.5

Per day

Orbit

LEO

Low Earth Orbit

Inclination

74.0

Latest

Satellite identification and parameters

Extended collection of information and parameters for COSMOS 1748.

Object identification

Identified? True

Debris? False

Object name: COSMOS 1748

International designator: 1986-042A

Object number (NORAD): 16758

Object ID (CCSDS): 16758

Country: COMMONWEALTH OF INDEPENDENT STATES (CIS)

Current information (Y/N): Y

RCS size: MEDIUM

Orbital parameters

Period: 115.128 minutes

Inclination: 74.0156 deg

SMA: 7839.367 km

Apoapsis: 1469.618 km

Periapsis: 1452.846 km

RAAN: 108.2667 deg

Eccentricy: 0.0010697

Argument of periapsis: 332.6545 deg

Mean anomaly: 57.0027 deg

Mean motion: 12.50780964 rev/day

Mean motion (dot): -0.00000023 rev/day2

B* drag term: -0.000046893 1/REarth

Two-line elements (TLE)

Creation date: May 12, 2025, 2:31 a.m.

Reference frame: TEME

Reference center: EARTH

Epoch: May 11, 2025, 10:43 p.m. UTC

TLE line 0: 0 COSMOS 1748

TLE line 1: 1 16758U 86042A 25131.94678354 -.00000023 00000-0 -46893-4 0 9996

TLE line 2: 2 16758 74.0156 108.2667 0010697 332.6545 57.0027 12.50780964777669

Live tracking on map

Real-time ground track for satellite COSMOS 1748.

In-orbit conjunctions

There are no conjunctions computed for COSMOS 1748, at the moment. Check back to stay up to date, as we update our databases every day.

Go to all conjunctions

Associated space launch

Military communications satellites

COSMOS 1748 was lifted into orbit during the mission ‘Kosmos-3M | Strela-1M 305-312’, on board a Kosmos-3M space rocket.

The launch took place on June 6, 1986, 3:57 a.m. from 132/1 (132L).

For more information about the launch, click the button.

Launch to space Kosmos-3M | Strela-1M 305-312
Kosmos-3M | Strela-1M 305-312

Agency: N/A

Status: Launch Successful

Launch date: June 6, 1986, 3:57 a.m. UTC

Rocket: Kosmos-3M

Launch pad: 132/1 (132L)

Location: Plesetsk Cosmodrome, Russian Federation

...

Latest news about this satellite

There are no fresh news available about this satellite. Check back as we update our databases every day.


Newsletter sign-up

Weekly statistics, charts and insights to help you stay on top of the space industry.